Flag for Canada Weather past 2 weeks in Steinbach, Manitoba, Canada

Now
40 °F

Quite cool.


Feels Like: 38 °F
Forecast: 34 / 49 °F
Wind: 3 mph from Northwest

Location: Winnipeg The Forks

Current Time: Mar 31, 2015 at 10:44:56 AM

Latest Report: Mar 31, 2015 at 10:00 AM


Visibility: N/A

Pressure: 29.93 "Hg

Humidity: 76%

Dew point: 33 °F

Location of SteinbachLocation

Historic Weather in Steinbach — Graph

°F

Steinbach temperature yesterday

Maximum temperature yesterday: 53 °F (at 2:00 PM)
Minimum temperature yesterday: 31 °F (at 6:00 AM)
Average temperature yesterday: 43 °F

Past Weeks' High & Low Weather Summary

 TemperatureHumidityPressure
High53 °F (Mar 30, 2:00 PM)100% (Mar 24, 8:00 AM)30.48 "Hg (Mar 24, 8:00 AM)
Low7 °F (Mar 21, 4:00 AM)30% (Mar 22, 4:00 PM)29.44 "Hg (Mar 29, 2:00 AM)
Average31 °F65%30.11 "Hg
* Reported Mar 16 9:00 AM — Mar 31 9:00 AM, Steinbach, Weather by CustomWeather, © 2015

Note: Actual official high and low records may vary slightly from our data, if they occured in-between our weather recording intervals... More about our weather records

Advertising

Steinbach weather history for previous 24 hours

 ConditionsComfort  
Time TempWeatherWind HumidityBarometerVisibility
9:00 AM
Tue, Mar 31
38 °FChilly.2 mph77%29.91 "HgN/A
8:00 AM36 °FChilly.3 mph92%29.91 "HgN/A
7:00 AM31 °FChilly.No wind93%29.90 "HgN/A
6:00 AM33 °FChilly.1 mph93%29.88 "HgN/A
5:00 AM33 °FChilly.1 mph95%29.87 "HgN/A
4:00 AM35 °FChilly.2 mph93%29.86 "HgN/A
3:00 AM38 °FChilly.2 mph84%29.85 "HgN/A
2:00 AM40 °FChilly.5 mph80%29.83 "HgN/A
1:00 AM39 °FChilly.3 mph79%29.83 "HgN/A
12:00 AM42 °FQuite cool.5 mph74%29.82 "HgN/A
11:00 PM
Mon, Mar 30
44 °FQuite cool.5 mph69%29.81 "HgN/A
10:00 PM47 °FCool.3 mph65%29.79 "HgN/A
9:00 PM48 °FCool.5 mph69%29.78 "HgN/A
8:00 PM48 °FCool.5 mph72%29.77 "HgN/A
7:00 PM50 °FCool.7 mph60%29.77 "HgN/A
6:00 PM52 °FCool.6 mph54%29.78 "HgN/A
5:00 PM46 °FCool.1 mph75%29.82 "HgN/A
4:00 PM49 °FCool.6 mph51%29.84 "HgN/A
3:00 PM52 °FCool.9 mph51%29.83 "HgN/A
2:00 PM53 °FCool.6 mph42%29.83 "HgN/A
1:00 PM51 °FCool.5 mph44%29.85 "HgN/A
12:00 PM49 °FCool.5 mph48%29.85 "HgN/A
11:00 AM42 °FQuite cool.2 mph58%29.85 "HgN/A
10:00 AM38 °FChilly.1 mph68%29.85 "HgN/A
Weather by CustomWeather, © 2015

See weather overviewHow to use our weather pages